Location: City of Clear Lake
(43.1347°N, 93.3740°W)
Time: 22:45:38
(UTC+00:00)

ARIANE 6 FM1 Upper Stage - Pass Details

Date: 12 October 2024
Orbit: 558 x 596 km, 62.0° (Epoch: 12 November)

Event Time Altitude Azimuth Distance (km) Brightness Sun altitude
Rises 02:20:30 0° 330° (NNW) 2,828 6.9 -30.4°
Reaches altitude 10° 02:23:17 10° 348° (NNW) 1,930 5.7 -30.9°
Enters shadow 02:23:51 12° 353° (N) 1,781 5.5 -31.0°
